Location: Poigny-la-Forêt
(48.6876°N, 1.7701°E)
Time: 06:54:19
(UTC+02:00)

ISS - Pass Details

Date: 21 May 2019
Orbit: 407 x 418 km, 51.6° (Epoch: 20 June)

Event Time Altitude Azimuth Distance (km) Brightness Sun altitude
Rises 01:49:22 0° 286° (WNW) 2,364 0.3 -21.2°
Reaches altitude 10° 01:51:30 10° 290° (WNW) 1,501 -0.7 -21.2°
Maximum altitude 01:54:49 56° 10° (N) 507 -3.1 -21.2°
Enters shadow 01:57:10 18° 85° (E) 1,119 -1.6 -21.2°
